User: anonymous   Login
Location: Unspecified
(0.0000°N, 0.0000°E)
Time: 16:56:00
(UTC+00:00)
Language:

DMSP B5D2-8 - Orbit

View from above orbital plane
View from above orbital plane
View from above satellite
View from above satellite

Ground track
Ground track

The orbit data is extracted from the following two-line orbital elements,

1 23533U 95015A   20051.91860052 +.00000029 +00000-0 +37131-4 0  9995
2 23533 098.8123 055.3520 0005697 260.7267 210.4749 14.15888574286459
Epoch (UTC): 20 February 2020 22:02:47
Eccentricity: 0.0005697
inclination: 98.8123°
perigee height: 835 km
apogee height: 843 km
right ascension of ascending node: 55.3520°
argument of perigee: 260.7267°
revolutions per day: 14.15888574
mean anomaly at epoch: 210.4749°
orbit number at epoch: 28645

The dashed part of the orbit path shows where the satellite is in the earth's shadow,  

DLR